Home > Weather > Unna > Past weeks

Flag for Germany Past Weather in Unna, North Rhine-Westphalia, Germany — Yesterday and Last 2 Weeks

Now
57 °F

Scattered clouds.


Feels Like: 56 °F
Forecast: 53 / 65 °F
Wind: 7 mph from Southwest

Location: Dortmund / Wickede

Current Time: Jun 25, 2016 at 11:21:17 PM

Latest Report: Jun 25, 2016 at 9:50 PM


Visibility: 6 mi

Pressure: 30.01 "Hg

Humidity: 88%

Dew Point: 54 °F

Location of UnnaLocation

Past Weather in Unna — Graph

°F

Unna Temperature Yesterday

Maximum temperature yesterday: 77 °F (at 1:20 PM)
Minimum temperature yesterday: 64 °F (at 5:20 AM)
Average temperature yesterday: 71 °F

High & Low Weather Summary for the Past Weeks

 TemperatureHumidityPressure
High90 °F (Jun 23, 3:20 PM)94% (Jun 13, 9:20 AM)30.24 "Hg (Jun 13, 9:20 AM)
Low48 °F (Jun 20, 5:20 AM)38% (Jun 23, 3:20 PM)29.47 "Hg (Jun 14, 2:50 PM)
Average63 °F73%29.88 "Hg
* Reported Jun 10 9:20 PM — Jun 25 9:50 PM, Unna, Weather by CustomWeather, © 2016

Note: Actual official high and low records may vary slightly from our data, if they occured in-between our weather recording intervals... More about our weather records

Advertising

Unna Weather History for the Previous 24 Hours

Scroll right to see more
 ConditionsComfort  
Time TempWeatherWind HumidityBarometerVisibility
9:50 PM
Sat, Jun 25
57 °FScattered clouds.7 mph88%30.01 "Hg6 mi
9:20 PM57 °FPassing clouds.7 mph88%29.98 "HgN/A
8:50 PM57 °FScattered clouds.8 mph88%29.98 "HgN/A
8:20 PM59 °FScattered clouds.6 mph88%29.98 "HgN/A
7:50 PM57 °FLight rain. Scattered clouds.9 mph88%29.98 "HgN/A
7:20 PM59 °FLight rain. Partly sunny.12 mph82%29.98 "Hg4 mi
6:50 PM59 °FLight rain. Partly sunny.7 mph88%29.98 "Hg5 mi
6:20 PM59 °FPartly sunny.6 mph82%29.98 "HgN/A
5:50 PM57 °FPartly sunny.9 mph88%29.98 "HgN/A
5:20 PM57 °FPartly sunny.7 mph88%29.98 "HgN/A
4:50 PM57 °FLight rain. Partly sunny.13 mph88%29.98 "HgN/A
4:20 PM57 °FLight rain. Partly sunny.16 mph88%29.95 "Hg3 mi
3:50 PM59 °FLight rain. Fog.14 mph88%29.95 "Hg2 mi
3:20 PM61 °FLight rain. Fog.12 mph94%29.92 "Hg2 mi
2:50 PM61 °FLight rain. Fog.12 mph94%29.92 "Hg2 mi
2:20 PM61 °FLight rain. Fog.8 mph94%29.92 "Hg2 mi
1:50 PM61 °FLight rain. Fog.6 mph94%29.92 "Hg2 mi
1:20 PM61 °FLight rain. Fog.8 mph94%29.95 "Hg2 mi
12:50 PM63 °FLight rain. Fog.7 mph88%29.95 "Hg2 mi
12:20 PM63 °FLight rain. Fog.3 mph88%29.95 "Hg2 mi
11:50 AM63 °FLight rain. Fog.1 mph88%29.95 "Hg2 mi
11:20 AM63 °FLight rain. Fog.2 mph88%29.95 "Hg2 mi
10:50 AM63 °FLight rain. Fog.3 mph88%29.95 "Hg2 mi
10:20 AM63 °FLight rain. Fog.3 mph88%29.95 "Hg2 mi
9:50 AM61 °FLight rain. Fog.8 mph94%29.95 "Hg2 mi
9:20 AM63 °FLight rain. Fog.5 mph88%29.95 "Hg2 mi
8:50 AM63 °FLight rain. Fog.3 mph88%29.95 "Hg2 mi
8:20 AM63 °FLight rain. Fog.2 mph94%29.98 "Hg1 mi
7:50 AM63 °FLight rain. Fog.No wind94%29.98 "Hg2 mi
7:20 AM64 °FFog.5 mph88%29.98 "Hg2 mi
6:50 AM64 °FFog.3 mph88%29.98 "Hg2 mi
6:20 AM63 °FFog.5 mph88%29.98 "Hg2 mi
5:50 AM63 °FFog.3 mph88%29.98 "Hg3 mi
5:20 AM64 °FFog.3 mph83%29.98 "Hg3 mi
Weather by CustomWeather, © 2016

See weather overviewHow to use our weather pages